Wetbulb
53.93 54.09 54.85 54.87 55.13 55.15 55.24 55.22 55.36 55.28 55.41 55.39 55.28 55.22 55.28 55.30 55.65 54.80 52.77 55.50 51.81 47.79 49.67 51.48 51.91 49.39 49.93 50.13 47.47 52.08 50.95 53.75 51.98 49.51 49.19 49.67 50.41 51.78 52.08 55.22 55.55 54.69 53.55 53.63 54.84 53.29 49.82 61.04 60.72 56.73 64.10 66.13 66.26 67.07
54.20 54.46 54.62 54.82 54.99 55.13 55.07 55.19 55.40 55.50 55.58 55.63 55.68 55.39 55.17 55.14 55.25 55.03 51.38 55.59 57.06 51.92 49.50 53.66 53.64 54.21 53.08 52.52 50.87 51.22 50.04 51.04 53.14 51.49 52.41 53.73 52.16 53.50 54.89 50.86 57.15 53.24 56.50 55.73 55.74 55.85 61.97 60.54 57.12 65.70 65.14 66.99 67.12 68.42
54.17 54.62 54.62 54.76 54.78 54.93 54.90 54.97 55.15 55.41 55.62 55.62 55.55 55.30 55.28 55.59 55.24 54.29 52.54 55.12 55.96 49.88 49.64 50.37 50.02 54.70 56.25 55.18 55.41 48.07 50.40 52.87 52.73 55.23 53.05 53.41 52.39 57.27 53.33 55.09 57.48 60.24 60.48 57.34 59.36 60.18 63.13 62.92 65.85 67.22 67.64 66.90 67.59 68.08
54.31 54.29 54.37 54.50 54.72 54.84 54.88 54.99 55.17 55.23 55.21 55.44 55.46 55.51 55.39 55.40 55.19 54.52 52.72 56.19 54.21 50.84 43.31 46.78 53.76 52.46 56.20 56.05 55.60 55.19 53.15 53.93 53.52 54.17 51.88 51.76 50.88 57.05 54.23 55.93 56.12 60.09 58.08 60.22 60.09 63.83 65.00 65.66 66.37 66.79 66.97 67.12 66.94 67.60
54.09 54.11 54.31 54.58 54.58 54.62 54.90 54.84 54.86 55.15 55.11 54.93 54.39 54.53 55.00 55.50 55.21 54.87 56.65 56.79 58.39 48.94 42.79 45.45 50.42 52.66 54.31 53.95 54.00 54.63 53.82 52.47 51.29 49.70 50.15 49.77 53.30 54.05 56.51 57.97 54.86 61.10 58.48 57.19 57.55 64.77 64.20 65.00 66.10 67.19 66.37 66.48 67.11 67.20
54.38 54.52 54.48 54.44 54.58 54.62 54.60 54.64 54.46 54.84 54.84 54.46 54.38 54.40 54.82 55.01 54.38 55.16 49.32 54.72 57.64 54.69 45.78 39.85 50.80 50.43 52.67 52.83 52.40 52.68 52.99 52.31 51.80 49.99 49.73 51.67 54.37 52.79 50.79 52.16 57.59 58.70 57.90 61.51 62.51 65.28 64.08 65.38 65.70 67.22 66.71 67.07 67.22 67.66
53.82 53.64 53.84 53.89 54.05 54.17 54.21 54.52 54.38 54.94 54.37 54.37 54.42 54.03 54.19 54.36 54.72 50.57 49.13 53.03 54.56 54.78 45.10 39.56 43.72 51.01 53.32 52.80 52.60 52.12 52.86 51.59 51.50 50.50 48.90 49.93 51.47 54.56 52.59 51.57 56.93 57.63 59.95 62.62 64.13 65.79 64.06 63.46 62.49 64.06 64.37 64.78 65.57 68.65
53.27 53.37 53.48 53.74 53.80 53.76 53.99 54.22 54.17 54.62 54.21 54.50 54.54 53.93 54.03 53.32 52.89 51.19 56.31 52.72 55.02 51.16 47.23 39.79 41.80 46.50 52.11 48.17 48.20 52.63 49.03 50.70 49.79 49.50 51.03 49.58 51.52 52.38 49.80 55.28 55.49 58.11 61.55 60.16 61.00 64.13 64.31 64.13 64.45 63.86 63.66 64.06 63.26 63.98
53.11 53.45 53.50 53.42 53.52 53.50 53.85 53.60 53.95 54.34 54.40 54.25 54.25 53.62 54.60 51.88 48.91 52.42 53.92 54.24 55.63 49.54 42.37 41.94 38.77 38.70 49.50 47.99 50.38 49.38 50.16 44.11 50.91 47.43 48.30 50.45 49.58 48.57 53.33 55.89 58.83 59.09 57.87 58.12 60.16 62.55 62.38 62.31 62.84 63.20 62.48 62.38 62.41 62.81
53.15 53.11 53.21 53.31 53.23 53.24 53.24 53.48 53.66 54.05 53.99 54.07 52.92 51.45 47.42 51.96 54.03 54.54 52.01 48.86 47.34 47.19 45.18 40.92 45.57 40.73 46.08 46.05 45.80 47.79 48.00 44.56 43.57 47.35 51.47 48.97 48.38 54.16 56.38 58.13 60.46 58.49 59.60 59.21 56.75 58.96 59.90 59.52 60.59 60.88 61.77 62.81 63.28 63.11
53.11 53.03 52.93 53.05 52.97 53.07 52.81 52.99 53.36 53.69 52.91 53.20 50.66 49.43 54.99 54.35 53.20 48.66 43.84 43.22 44.00 40.68 44.22 44.57 44.74 40.65 47.33 41.59 42.71 49.69 46.68 46.92 42.98 46.55 46.63 46.17 46.49 52.06 57.20 58.57 60.82 61.04 60.28 60.16 59.48 60.91 60.68 60.26 60.22 60.22 60.91 62.04 62.55 63.41
52.86 52.72 52.70 52.69 52.79 52.59 52.77 52.89 53.25 53.43 52.63 51.70 51.42 54.22 55.20 51.26 47.41 43.21 41.26 44.03 43.19 41.81 46.48 45.00 46.52 46.03 47.28 48.71 44.60 46.21 45.78 48.79 42.95 50.73 46.85 44.54 51.20 56.36 57.19 59.79 59.89 61.45 61.05 61.78 63.73 63.19 63.69 63.77 63.55 62.99 61.65 61.95 62.99 64.32
52.33 52.41 52.34 52.45 52.63 53.30 52.88 52.73 53.63 53.54 52.64 55.37 51.97 49.48 47.79 47.21 38.87 38.94 36.17 37.96 36.44 43.27 47.32 47.16 45.20 49.47 51.55 51.17 47.43 44.34 40.70 45.86 52.03 47.54 46.15 49.88 59.12 60.33 61.50 60.60 61.05 63.12 63.87 64.09 64.72 64.95 64.64 65.04 65.97 65.47 66.13 67.84 64.24 64.63
52.09 52.10 52.23 52.58 53.22 53.12 52.49 53.19 53.10 53.51 52.72 49.25 45.21 38.57 41.82 41.88 43.48 45.61 45.52 46.20 46.65 43.55 47.21 47.87 46.26 47.79 51.73 49.25 49.92 45.13 48.11 48.54 45.79 44.56 47.48 54.68 58.69 60.84 61.39 61.58 61.21 61.20 62.49 63.15 64.14 65.23 65.68 67.30 66.91 66.80 67.25 69.06 65.49 65.12
52.07 52.12 52.01 53.08 53.16 53.33 53.00 52.54 52.65 54.60 51.63 47.06 45.58 36.87 42.84 47.26 47.87 48.20 49.01 48.54 51.29 51.70 50.88 48.52 49.40 49.98 49.18 48.75 49.60 48.12 44.61 44.53 46.95 47.77 53.86 58.32 59.78 60.81 61.12 60.77 60.76 61.09 61.85 62.28 62.88 63.78 65.07 66.14 66.96 67.47 67.15 67.98 67.44 68.03
52.16 51.78 52.45 52.33 52.95 53.50 53.21 53.78 54.88 54.94 52.03 47.45 46.76 44.64 46.95 46.79 46.22 48.50 48.43 49.39 52.19 51.93 54.42 51.22 47.31 47.05 46.96 48.43 46.07 44.54 42.01 41.34 45.39 51.49 53.25 55.55 58.56 60.55 61.27 61.24 61.69 62.14 62.49 62.41 62.23 62.70 63.47 65.14 66.40 67.12 68.29 67.37 67.15 68.02
51.54 51.07 51.95 52.11 52.42 53.39 53.30 52.93 53.98 50.87 47.89 45.88 46.41 50.76 50.14 48.81 48.00 49.39 50.60 50.23 53.75 50.23 46.14 49.30 43.48 44.46 50.82 47.13 46.01 49.51 45.24 48.52 49.93 54.22 55.85 55.03 55.69 59.51 61.18 61.90 61.72 61.95 62.06 62.71 63.13 63.34 63.37 64.80 66.77 67.07 67.73 68.49 67.33 67.49
51.52 52.31 51.88 51.93 52.45 54.88 54.86 53.60 50.83 48.82 44.35 47.53 45.76 48.38 50.73 51.66 50.62 51.19 52.04 53.11 52.16 50.58 50.01 46.63 49.72 45.21 44.78 43.84 45.70 50.58 49.85 50.82 53.28 54.82 55.72 59.10 59.54 61.57 61.38 61.38 62.15 62.49 62.18 62.35 62.84 62.65 64.02 64.50 64.36 64.06 67.78 68.75 68.20 67.87
51.21 51.72 52.07 52.06 52.95 51.90 50.13 51.26 51.95 45.14 46.29 48.23 49.04 49.99 49.88 50.92 52.28 53.66 53.53 53.55 53.63 53.89 52.04 50.27 46.50 46.22 46.65 50.30 49.68 52.71 53.52 54.33 53.42 55.13 55.03 60.07 61.75 62.79 62.66 62.63 63.40 63.30 63.28 62.65 61.65 60.98 61.62 65.73 62.47 62.74 63.46 66.68 66.28 65.84
51.84 52.22 52.19 52.02 52.55 51.07 47.71 48.74 53.97 47.74 44.90 47.11 49.14 48.17 49.54 50.26 52.77 52.60 53.47 53.16 55.08 53.35 49.16 47.44 47.07 49.43 49.80 52.25 55.50 56.79 56.45 56.77 56.23 54.85 55.46 57.29 58.33 59.81 58.08 60.41 59.41 61.39 60.49 61.68 60.65 55.90 60.93 61.81 62.65 63.30 63.12 63.00 64.01 65.55
52.19 52.21 52.75 53.82 54.55 51.15 49.32 47.95 47.39 47.55 48.05 46.98 49.04 48.43 48.52 51.40 48.56 48.93 49.06 50.84 48.68 46.35 44.79 47.57 46.78 48.19 50.45 52.13 54.48 57.60 57.86 58.57 57.01 57.29 56.36 55.53 58.16 58.78 59.16 59.75 61.26 60.98 59.87 59.62 59.59 59.84 59.37 61.32 62.42 62.92 62.88 62.64 63.15 64.31
52.02 52.73 53.27 52.50 48.71 49.20 47.87 49.14 46.68 48.52 46.80 46.66 47.03 48.14 46.07 45.66 46.83 47.68 50.58 47.37 45.78 45.96 46.87 46.83 47.25 48.07 48.85 50.40 52.56 57.02 58.10 59.09 58.85 57.86 54.63 55.93 57.52 57.68 57.84 59.10 59.21 59.13 59.63 59.96 60.46 60.39 61.28 62.16 62.82 63.40 63.48 63.28 61.64 63.87
51.92 52.36 50.15 48.57 43.81 41.51 41.98 49.67 44.79 45.70 43.38 43.98 46.38 44.64 45.58 46.82 49.58 52.23 45.75 46.24 46.37 49.19 49.01 49.11 49.03 50.74 50.33 52.05 54.72 54.44 54.38 53.20 52.29 52.91 52.42 51.84 51.26 51.87 53.72 56.03 56.87 56.63 57.40 59.20 60.84 60.70 60.62 56.91 61.15 61.87 63.69 63.71 63.95 63.82
51.53 48.43 45.26 43.87 42.96 41.84 46.30 44.60 47.24 44.75 45.74 46.99 45.72 44.95 47.55 49.18 51.21 47.70 43.56 46.19 48.50 50.79 49.55 48.89 48.90 48.56 49.77 50.81 50.64 52.07 54.03 54.11 52.25 52.26 52.56 50.32 48.29 49.16 51.21 51.82 54.51 55.49 53.65 54.87 56.45 56.05 59.93 61.21 56.25 61.87 62.65 62.45 62.37 63.27
41.55 42.52 44.32 39.51 46.89 45.52 45.25 46.57 46.40 47.14 45.28 47.48 46.42 46.70 49.38 51.44 47.37 46.22 45.50 48.99 51.12 50.52 51.70 51.85 50.91 50.01 48.99 50.35 52.65 53.32 55.62 55.35 53.34 52.76 52.82 53.69 52.34 49.85 49.22 49.76 49.96 50.17 52.08 51.43 52.27 54.84 55.86 56.67 58.24 59.21 61.09 61.97 60.82 60.92
38.21 46.78 42.73 48.91 49.49 48.43 49.46 47.32 48.03 48.51 49.07 47.70 49.06 51.59 52.44 49.59 45.37 43.44 46.48 48.78 49.63 50.27 50.39 51.62 51.78 52.67 52.15 51.58 51.26 51.02 52.76 57.98 57.31 52.42 53.50 55.85 55.08 53.57 51.59 51.81 50.62 50.04 52.09 53.15 52.11 52.67 54.02 56.66 56.60 56.87 56.69 56.38 52.07 58.66
43.07 50.38 53.02 55.91 55.62 55.09 53.13 53.77 54.76 52.02 49.62 49.02 51.34 51.28 49.69 43.32 42.92 46.66 50.03 52.14 49.64 50.94 51.10 51.11 49.83 50.32 51.19 52.46 54.31 55.03 54.02 54.83 53.75 52.26 53.25 53.90 53.41 53.44 52.67 50.26 50.68 52.93 53.97 54.42 53.00 52.76 52.74 53.69 55.44 56.70 57.32 56.92 56.57 57.54
53.05 55.74 51.98 54.56 53.94 56.02 51.70 52.50 50.67 49.46 50.52 53.50 52.60 48.21 46.13 46.03 45.83 50.15 52.00 53.87 54.10 53.90 53.24 52.82 52.86 51.85 51.57 51.54 51.79 51.80 51.76 52.53 53.29 54.17 54.12 53.16 53.13 53.28 52.72 53.27 54.42 45.99 52.75 55.91 55.45 56.04 56.11 55.48 54.55 54.42 55.74 55.71 56.36 57.10
55.19 56.73 55.44 52.96 53.40 53.21 53.18 51.73 52.06 54.41 55.48 53.85 50.37 49.41 49.12 51.69 53.88 53.02 53.31 53.06 53.75 52.44 52.14 51.46 51.44 52.44 51.97 52.39 53.02 53.99 53.90 52.73 51.43 49.27 48.26 47.05 47.34 48.44 50.98 51.38 52.68 53.38 53.45 54.26 47.69 47.06 51.43 52.24 55.78 56.13 56.14 57.24 58.54 59.44
54.82 57.05 53.26 52.84 50.84 51.07 53.39 55.59 54.45 56.20 56.22 54.44 53.29 52.75 52.11 51.75 50.87 51.06 49.12 49.03 50.27 50.94 51.57 51.39 51.97 51.95 51.52 51.50 51.33 51.97 52.83 52.01 51.49 49.58 46.89 45.87 47.01 48.72 49.47 49.61 50.87 51.21 51.69 52.18 52.38 52.99 47.70 52.02 53.38 55.67 53.46 55.40 56.81 57.30
57.83 54.93 52.46 54.54 52.20 55.15 56.60 57.81 57.47 56.82 55.46 53.09 53.00 49.21 48.32 52.22 50.95 52.60 53.87 54.58 53.57 52.59 51.31 51.31 51.82 52.08 51.35 50.83 50.16 48.99 47.89 50.30 51.08 50.91 49.52 49.41 49.11 48.64 49.00 49.63 50.53 50.73 50.74 50.74 51.49 51.69 51.95 52.19 53.04 52.54 52.21 52.01 51.86 51.37
56.53 54.90 53.09 51.55 53.41 55.86 58.32 56.67 55.17 51.58 52.14 50.17 50.07 52.18 51.29 50.38 48.97 52.40 53.76 53.36 51.32 50.82 48.45 50.73 50.31 50.27 51.76 51.87 51.37 50.56 43.37 49.95 50.51 49.76 49.02 48.59 48.29 48.50 48.61 49.59 49.47 49.75 49.20 49.28 50.19 50.63 50.72 50.70 50.70 50.63 50.15 50.44 50.13 49.25
56.33 55.65 55.93 54.24 52.59 52.67 55.33 54.70 48.97 47.70 48.40 48.29 49.91 51.42 52.33 50.26 46.95 51.59 54.86 53.84 52.43 52.23 51.36 51.35 51.56 51.35 51.57 51.10 50.51 49.56 46.00 49.48 47.01 41.47 39.65 39.47 38.55 40.72 45.68 48.12 48.58 48.74 47.43 47.54 48.15 48.93 49.15 49.45 49.32 49.31 49.17 48.57 48.63 48.98
MSLP
1023.62 1023.38 1023.15 1022.82 1022.47 1022.22 1022.00 1021.67 1021.36 1021.05 1020.79 1020.60 1020.39 1020.21 1020.00 1019.79 1019.61 1019.38 1017.73 1017.07 1016.99 1016.14 1014.38 1013.29 1012.60 1011.73 1010.94 1010.02 1008.63 1006.33 1005.72 1003.81 1003.32 1002.31 1001.15 999.73 998.00 996.54 995.50 994.09 993.25 993.13 993.27 993.18 993.52 992.56 993.29 993.88 993.11 992.61 993.66 993.74 994.17 994.41
1023.30 1023.14 1022.89 1022.59 1022.31 1021.90 1021.67 1021.45 1021.05 1020.68 1020.46 1020.29 1020.10 1019.95 1019.77 1019.58 1019.45 1019.32 1017.99 1016.82 1016.96 1016.91 1014.74 1013.98 1013.52 1012.93 1012.19 1011.52 1010.68 1009.20 1007.74 1006.70 1005.05 1004.09 1002.63 1000.97 998.86 996.99 995.87 994.41 993.48 992.86 992.31 992.22 992.35 992.34 993.70 994.38 994.67 993.19 993.67 994.39 994.44 994.84
1023.06 1022.85 1022.60 1022.29 1022.03 1021.71 1021.34 1021.15 1020.70 1020.38 1020.12 1019.89 1019.69 1019.54 1019.38 1019.18 1019.08 1019.09 1017.88 1017.21 1017.43 1016.75 1014.81 1012.84 1011.68 1010.72 1010.65 1010.52 1010.66 1009.91 1008.70 1007.78 1006.66 1005.93 1004.92 1003.10 1000.83 998.47 996.95 995.98 994.60 993.64 992.00 991.92 992.21 992.02 992.98 994.59 995.72 994.90 994.50 994.73 994.66 994.72
1022.77 1022.48 1022.28 1022.02 1021.71 1021.47 1021.08 1020.76 1020.38 1020.08 1019.79 1019.55 1019.27 1019.02 1018.87 1018.72 1018.62 1018.59 1017.62 1017.16 1017.42 1017.01 1015.60 1012.46 1011.66 1010.75 1010.01 1009.16 1008.96 1008.88 1008.70 1008.30 1007.57 1006.92 1005.75 1004.02 1002.60 1000.79 999.72 999.51 998.53 996.26 995.59 992.58 992.59 991.91 992.72 993.27 993.87 994.53 994.85 994.68 994.89 995.06
1022.41 1022.18 1021.93 1021.67 1021.31 1021.13 1020.74 1020.42 1020.09 1019.70 1019.44 1019.25 1019.00 1018.71 1018.48 1018.23 1018.03 1017.85 1017.18 1016.88 1016.92 1017.35 1015.85 1013.45 1012.47 1010.65 1009.87 1009.20 1008.55 1008.09 1007.79 1007.63 1007.39 1006.98 1006.02 1004.44 1003.54 1002.62 1000.89 1000.50 999.49 998.39 997.92 996.45 993.13 992.86 993.24 993.87 994.69 994.63 994.62 994.95 995.42 995.18
1022.03 1021.84 1021.58 1021.23 1020.91 1020.68 1020.31 1020.02 1019.74 1019.40 1019.17 1018.93 1018.69 1018.50 1018.21 1017.92 1017.87 1017.28 1016.41 1016.56 1016.25 1016.55 1016.23 1014.68 1011.71 1010.01 1009.19 1008.35 1008.16 1008.08 1007.75 1007.36 1006.97 1006.44 1005.74 1004.94 1004.24 1003.83 1002.10 1000.87 1000.58 1000.91 1000.25 997.97 993.33 992.36 993.87 994.98 995.34 995.03 994.81 995.13 995.52 995.25
1021.68 1021.43 1021.23 1020.86 1020.56 1020.23 1019.95 1019.69 1019.34 1019.01 1018.85 1018.56 1018.37 1018.31 1018.05 1017.82 1017.38 1017.32 1017.03 1016.78 1016.47 1016.70 1016.62 1015.30 1012.12 1009.08 1009.07 1008.74 1008.33 1007.58 1006.98 1006.80 1006.48 1005.85 1005.59 1005.25 1004.38 1003.37 1002.48 1001.26 1001.57 1001.79 1002.42 999.98 997.24 995.00 994.99 995.88 995.79 995.85 995.21 995.37 995.59 995.41
1021.32 1021.08 1020.88 1020.51 1020.17 1019.78 1019.53 1019.30 1019.00 1018.71 1018.48 1018.21 1018.04 1018.00 1017.85 1017.63 1017.43 1016.95 1016.16 1016.69 1016.74 1016.73 1016.81 1015.47 1012.62 1010.23 1009.72 1008.46 1007.79 1007.34 1007.22 1006.56 1006.32 1006.16 1005.35 1004.44 1004.12 1003.49 1001.99 1001.66 1002.65 1003.36 1003.24 1002.79 1000.25 996.44 995.18 995.15 996.15 995.85 995.78 996.16 996.34 996.35
1020.99 1020.82 1020.54 1020.19 1019.75 1019.46 1019.20 1018.98 1018.65 1018.38 1018.13 1017.91 1017.75 1017.63 1017.34 1017.40 1016.88 1016.33 1016.36 1016.49 1016.52 1017.01 1016.05 1015.16 1013.59 1011.68 1011.06 1010.39 1009.52 1008.35 1006.93 1006.56 1006.01 1005.23 1004.62 1004.00 1002.58 1001.77 1001.46 1001.86 1002.47 1003.40 1003.94 1004.55 1003.15 998.06 994.98 995.45 996.32 996.46 996.71 996.93 997.04 997.25
1020.75 1020.54 1020.22 1019.78 1019.39 1019.11 1018.93 1018.64 1018.31 1018.03 1017.76 1017.55 1017.38 1016.99 1016.18 1016.04 1016.08 1016.12 1016.18 1015.94 1016.07 1015.82 1015.67 1014.51 1013.33 1012.45 1012.14 1011.30 1010.38 1009.12 1007.24 1006.29 1004.42 1003.77 1003.02 1002.21 1001.33 1001.35 1001.12 1001.64 1002.04 1002.87 1003.52 1002.60 1001.11 998.02 997.37 997.40 996.94 997.04 997.24 997.36 997.55 997.86
1020.41 1020.16 1019.79 1019.37 1018.98 1018.65 1018.48 1018.29 1018.04 1017.78 1017.21 1016.92 1016.30 1015.38 1015.06 1015.62 1015.72 1015.81 1015.56 1015.36 1015.00 1014.76 1014.07 1012.99 1012.42 1012.40 1012.31 1011.89 1010.94 1009.35 1007.22 1005.02 1002.67 1001.14 1001.19 1000.34 1000.00 1000.37 999.98 1000.10 1000.98 1001.31 1002.01 1001.64 1000.68 999.44 998.65 997.67 997.66 997.65 997.75 997.91 997.95 998.17
1020.09 1019.75 1019.37 1018.89 1018.46 1018.15 1017.97 1017.86 1017.72 1017.31 1016.87 1016.79 1016.64 1015.36 1015.16 1014.76 1014.93 1014.92 1014.59 1014.05 1013.74 1012.74 1012.05 1011.62 1011.40 1011.39 1011.06 1011.13 1010.57 1009.58 1007.20 1003.75 1000.21 999.19 999.77 998.83 998.25 999.12 999.49 998.89 999.16 999.73 1001.16 1001.26 999.25 998.36 997.93 997.65 997.73 997.67 997.88 998.07 998.14 998.34
1019.65 1019.32 1018.89 1018.39 1017.92 1017.57 1017.41 1017.41 1017.27 1017.04 1016.57 1015.76 1015.99 1014.69 1014.19 1013.57 1013.66 1013.49 1013.59 1013.53 1013.35 1013.10 1011.35 1010.79 1010.25 1009.78 1009.24 1009.21 1009.04 1008.11 1007.19 1003.34 1000.90 999.02 998.45 998.17 998.16 998.47 999.08 999.20 999.35 999.72 999.52 999.01 999.12 998.74 998.28 998.06 997.93 997.95 998.24 998.27 998.33 998.58
1019.31 1018.92 1018.49 1018.11 1017.62 1017.31 1017.27 1017.19 1017.07 1016.83 1016.34 1015.37 1014.89 1014.32 1013.33 1012.18 1011.81 1011.54 1011.59 1011.41 1012.00 1012.06 1011.29 1010.85 1009.94 1008.38 1007.69 1007.11 1006.42 1005.59 1004.78 1003.66 1001.83 999.80 999.63 999.77 999.80 999.75 999.71 999.83 999.96 999.87 999.67 999.58 999.33 998.99 998.66 998.32 998.11 998.45 998.54 998.39 998.55 998.73
1018.85 1018.52 1018.27 1017.94 1017.72 1017.45 1017.29 1017.15 1017.04 1016.36 1015.59 1014.60 1014.34 1013.39 1012.07 1011.21 1011.11 1011.01 1010.79 1010.73 1010.08 1009.80 1010.00 1009.79 1008.94 1007.93 1006.64 1005.87 1005.61 1005.17 1004.69 1003.25 1001.60 1001.71 1001.81 1001.80 1001.57 1001.21 1000.61 1000.26 1000.51 1000.44 1000.40 1000.10 999.76 999.70 999.39 998.94 998.94 998.26 998.31 998.41 998.62 998.75
1018.48 1018.06 1017.92 1017.90 1017.69 1017.45 1017.23 1016.83 1016.31 1015.68 1014.71 1014.19 1013.50 1012.12 1011.13 1010.31 1010.10 1009.69 1009.50 1008.90 1008.44 1007.78 1008.92 1009.02 1008.34 1006.93 1005.55 1004.82 1004.82 1004.52 1004.96 1005.49 1005.47 1004.61 1004.17 1003.60 1003.24 1002.68 1001.99 1001.79 1001.32 1000.96 1000.94 1000.38 1000.09 999.84 999.59 999.41 998.91 998.74 998.29 998.19 998.22 998.30
1018.13 1017.80 1017.78 1017.72 1017.52 1017.25 1017.14 1016.81 1015.64 1014.72 1014.07 1013.54 1011.96 1010.74 1009.89 1009.62 1009.19 1008.53 1008.20 1007.91 1007.46 1007.42 1007.49 1007.72 1007.55 1006.44 1005.69 1004.92 1004.40 1004.68 1005.59 1006.05 1006.15 1005.27 1004.74 1004.69 1004.62 1003.61 1003.03 1002.03 1001.02 1001.06 1000.92 1000.60 1000.16 999.97 999.70 999.21 998.80 998.68 998.40 998.10 998.08 997.97
1017.76 1017.62 1017.68 1017.59 1017.40 1016.74 1016.11 1015.87 1015.16 1014.07 1013.61 1012.48 1011.66 1011.01 1010.36 1009.49 1009.14 1008.39 1008.16 1008.08 1007.90 1007.57 1007.30 1006.95 1006.82 1006.46 1006.51 1006.19 1005.91 1005.78 1006.06 1005.66 1005.08 1004.41 1004.24 1003.73 1003.57 1003.33 1002.68 1002.12 1001.92 1001.64 1001.30 1000.88 1000.44 1000.22 999.73 999.06 998.85 998.14 998.00 997.99 997.80 997.58
1017.64 1017.46 1017.41 1017.43 1017.32 1016.78 1015.81 1014.90 1014.69 1014.00 1013.23 1012.78 1012.28 1011.83 1011.46 1010.59 1010.16 1009.77 1009.32 1009.13 1008.82 1008.34 1008.10 1007.06 1007.14 1007.58 1008.00 1007.49 1007.25 1006.22 1005.49 1005.07 1004.88 1004.17 1003.82 1003.17 1002.96 1002.87 1002.65 1002.25 1001.97 1001.69 1001.32 1001.04 1000.68 1000.05 999.41 998.86 998.58 998.13 997.63 997.25 997.21 997.34
1017.41 1017.14 1017.22 1017.37 1017.35 1016.44 1015.51 1015.20 1014.64 1014.19 1013.57 1013.41 1013.00 1012.62 1012.01 1011.17 1010.78 1010.63 1010.58 1010.34 1009.77 1009.44 1009.15 1009.35 1009.85 1009.90 1009.47 1008.63 1007.78 1007.10 1006.16 1005.37 1004.99 1004.61 1004.02 1003.42 1003.18 1002.99 1002.93 1002.53 1002.22 1002.07 1001.58 1000.75 1000.00 999.38 998.88 998.34 998.00 997.86 997.41 997.52 997.50 997.06
1017.36 1017.50 1017.42 1017.21 1016.70 1016.77 1016.08 1015.74 1015.24 1015.08 1014.24 1013.57 1013.30 1013.07 1012.41 1012.19 1012.30 1012.18 1012.09 1011.87 1011.50 1011.98 1012.00 1011.91 1011.65 1011.01 1010.30 1009.37 1008.41 1007.27 1006.55 1006.38 1006.08 1005.72 1005.21 1004.67 1004.14 1003.88 1003.36 1002.71 1002.46 1001.59 1000.76 1000.05 999.68 999.21 998.81 998.44 998.21 997.94 997.70 997.44 997.18 996.77
1017.39 1017.48 1017.24 1017.35 1017.14 1016.55 1016.38 1016.28 1015.89 1015.27 1014.79 1014.11 1013.82 1013.54 1013.34 1013.29 1013.25 1013.20 1013.25 1013.02 1013.46 1013.64 1013.38 1012.79 1011.78 1010.82 1009.91 1009.08 1008.43 1007.53 1007.17 1006.83 1006.60 1006.33 1005.97 1005.63 1005.28 1004.68 1004.19 1003.70 1003.11 1002.56 1002.17 1001.75 1001.18 1000.51 999.98 999.44 998.91 998.68 998.05 997.79 997.68 997.51
1017.41 1017.41 1017.27 1017.20 1017.02 1016.83 1016.66 1016.38 1015.68 1015.11 1014.57 1014.30 1014.10 1013.77 1013.63 1013.56 1013.47 1013.41 1013.82 1014.44 1014.63 1014.08 1013.33 1012.61 1011.67 1010.07 1009.14 1008.78 1008.48 1008.37 1008.06 1007.92 1007.93 1007.55 1007.04 1006.69 1006.44 1006.20 1005.92 1005.57 1004.97 1004.48 1003.94 1003.41 1002.76 1002.26 1001.74 1001.09 1000.17 999.57 998.75 998.12 997.78 997.53
1017.27 1017.16 1016.80 1016.63 1016.45 1016.00 1016.01 1015.34 1014.97 1014.66 1014.17 1013.79 1013.47 1012.89 1012.70 1012.71 1012.98 1013.43 1013.84 1014.21 1014.37 1014.20 1013.35 1012.59 1011.97 1011.24 1010.49 1009.79 1009.44 1009.21 1008.90 1008.60 1008.39 1008.05 1007.69 1007.37 1006.98 1006.58 1006.31 1006.10 1005.77 1005.44 1005.37 1004.87 1004.03 1003.19 1002.09 1001.31 1000.80 1000.06 999.38 998.71 998.16 997.65
1017.26 1016.80 1016.39 1015.80 1015.21 1014.61 1013.91 1013.51 1013.34 1013.07 1012.35 1012.30 1011.99 1011.76 1011.71 1012.04 1012.03 1012.44 1012.94 1013.16 1013.35 1013.37 1013.08 1012.74 1012.24 1011.81 1011.24 1010.56 1010.07 1009.55 1009.04 1008.82 1008.47 1007.99 1007.42 1007.28 1006.86 1006.47 1006.24 1006.04 1005.91 1005.57 1005.25 1004.97 1004.40 1003.79 1003.06 1002.53 1001.79 1001.07 1000.23 999.80 999.66 999.42
1015.74 1014.96 1014.59 1013.11 1012.57 1012.22 1011.43 1010.96 1010.96 1010.64 1010.47 1010.56 1010.26 1010.10 1010.33 1010.49 1011.24 1012.40 1012.74 1012.64 1012.53 1012.49 1012.35 1011.81 1011.46 1011.21 1010.67 1009.99 1009.40 1008.82 1008.31 1007.94 1007.78 1007.27 1006.72 1005.87 1005.70 1005.60 1005.68 1005.48 1005.46 1005.19 1004.85 1004.71 1004.77 1004.12 1003.44 1002.99 1002.24 1001.72 1001.29 1000.57 1000.10 999.71
1013.76 1012.08 1011.80 1011.42 1010.43 1009.91 1009.79 1009.64 1009.38 1009.18 1009.18 1009.06 1008.90 1009.31 1009.47 1010.34 1011.73 1012.53 1012.67 1012.70 1012.55 1012.12 1011.83 1011.44 1010.95 1010.42 1009.57 1009.04 1008.54 1008.16 1007.84 1007.32 1007.12 1007.04 1006.74 1006.33 1006.30 1006.09 1005.89 1005.67 1005.25 1004.82 1004.45 1004.06 1003.92 1003.75 1003.42 1002.64 1002.21 1001.91 1001.44 1000.89 1000.48 1000.03
1011.41 1010.13 1009.48 1009.36 1009.29 1009.21 1008.88 1008.41 1008.29 1008.33 1008.16 1007.69 1007.68 1008.55 1009.93 1010.87 1011.98 1012.40 1012.28 1012.12 1011.86 1011.59 1011.08 1010.46 1009.93 1009.38 1008.54 1008.10 1007.77 1007.50 1007.24 1007.05 1006.88 1006.83 1006.74 1006.66 1006.41 1006.24 1006.15 1005.73 1005.16 1004.69 1003.89 1003.15 1003.12 1002.87 1002.81 1002.48 1002.00 1001.40 1000.99 1000.61 1000.14 1000.09
1009.52 1008.51 1008.83 1008.48 1008.36 1008.28 1007.88 1007.70 1007.64 1007.80 1007.83 1008.02 1008.66 1009.59 1010.76 1011.77 1012.15 1011.99 1011.86 1011.92 1011.55 1011.22 1010.32 1009.31 1008.78 1008.27 1008.24 1008.15 1007.95 1007.97 1007.74 1007.68 1007.16 1007.15 1007.21 1007.14 1006.73 1006.61 1006.45 1006.10 1005.19 1004.56 1004.05 1003.44 1002.86 1002.39 1002.01 1001.67 1001.32 1000.68 1000.25 999.77 999.41 999.43
1007.77 1007.67 1007.97 1007.82 1007.71 1007.65 1007.44 1007.42 1007.75 1008.19 1008.62 1009.23 1010.12 1011.15 1011.83 1012.56 1013.19 1013.07 1012.76 1012.41 1011.83 1010.99 1010.18 1009.83 1009.18 1008.82 1008.78 1008.71 1008.51 1008.44 1008.37 1008.52 1008.17 1008.30 1008.43 1008.31 1007.97 1007.68 1007.29 1006.69 1005.69 1005.14 1004.56 1003.77 1002.90 1001.91 1000.97 1000.87 1000.54 1000.57 1000.24 999.38 998.80 998.56
1006.49 1007.17 1007.54 1007.12 1007.56 1007.41 1007.35 1008.06 1008.85 1009.54 1010.20 1011.07 1011.64 1012.30 1012.86 1013.03 1013.32 1012.83 1012.23 1011.39 1010.67 1010.48 1010.71 1010.56 1009.97 1009.77 1009.66 1009.60 1009.46 1009.38 1009.39 1009.32 1008.94 1009.15 1009.66 1009.36 1009.00 1008.62 1008.22 1007.49 1006.47 1005.92 1005.24 1004.42 1003.36 1002.39 1001.84 1001.28 1000.87 1000.92 1000.98 1000.67 1000.29 999.82
1006.01 1006.56 1006.58 1006.98 1008.03 1008.00 1007.99 1008.73 1010.04 1011.04 1011.94 1012.79 1013.22 1013.30 1013.29 1013.11 1012.82 1011.93 1011.55 1011.39 1011.23 1011.14 1011.59 1011.35 1011.03 1010.74 1010.74 1010.69 1010.43 1010.36 1010.66 1009.84 1009.50 1009.89 1010.13 1009.91 1009.67 1009.36 1008.88 1007.82 1007.29 1006.61 1006.15 1005.24 1004.33 1003.56 1003.06 1002.39 1001.96 1001.88 1001.95 1001.72 1001.54 1001.44
1005.58 1005.99 1005.96 1007.30 1008.30 1008.29 1008.91 1009.81 1011.53 1012.33 1013.32 1013.47 1013.51 1013.21 1012.60 1012.53 1012.72 1012.48 1011.99 1011.88 1011.94 1011.81 1011.99 1012.04 1011.85 1011.64 1011.47 1011.20 1011.06 1011.00 1010.93 1010.48 1010.57 1010.75 1010.63 1010.45 1010.25 1009.78 1009.16 1008.42 1007.92 1007.15 1006.80 1006.00 1005.42 1004.84 1004.10 1003.63 1003.03 1002.84 1002.51 1002.49 1002.29 1002.16
Wind_Speed
11 12 12 12 12 12 13 13 13 13 13 13 13 12 11 11 11 6 8 7 6 5 16 20 18 15 12 12 11 13 11 3 9 14 15 15 15 16 20 21 19 19 15 14 17 9 10 7 7 7 8 7 8 7
11 12 12 12 13 12 13 14 14 14 13 14 13 12 12 11 10 6 8 4 5 4 14 19 20 21 19 17 14 14 16 16 7 10 9 6 12 13 17 15 21 19 19 13 16 8 18 6 5 7 12 10 7 5
11 12 12 12 12 13 13 14 14 14 13 13 13 13 13 12 10 8 9 8 4 4 11 14 14 16 19 21 18 14 12 16 13 10 10 7 9 10 10 11 17 17 21 16 12 15 20 27 23 7 8 8 8 6
11 12 12 12 12 12 13 14 14 13 13 13 13 13 13 12 10 9 8 7 2 3 5 10 14 13 19 13 16 19 20 18 17 9 11 9 8 13 9 7 14 10 19 14 6 7 17 15 14 11 9 8 6 5
11 12 12 13 12 13 13 13 14 14 12 11 12 12 14 13 12 10 6 7 7 3 4 12 18 25 21 19 19 15 14 14 10 10 11 10 10 11 11 3 9 7 11 13 9 15 9 15 11 8 11 9 6 4
11 11 12 13 13 13 12 13 14 13 11 11 11 12 12 10 6 4 3 6 3 4 2 4 9 15 18 14 11 14 15 14 11 11 10 11 18 12 10 7 5 13 19 31 13 19 14 12 8 10 11 11 4 6
10 10 12 12 13 12 12 12 13 11 11 11 10 10 10 7 5 3 3 4 5 4 1 5 7 2 2 8 11 14 15 10 11 10 14 12 14 11 11 14 7 13 14 24 19 18 22 16 12 8 11 10 4 6
10 10 11 12 12 12 11 11 13 11 12 11 10 7 9 4 4 5 3 9 5 2 2 4 7 8 10 8 6 5 8 7 9 11 12 13 11 11 11 13 7 1 14 10 27 23 11 15 9 10 10 8 7 7
9 11 11 12 12 12 11 12 12 12 11 10 9 8 4 2 2 1 1 6 3 3 3 3 3 5 4 3 3 5 5 6 6 13 14 9 12 12 9 8 1 14 0 12 25 19 12 12 8 7 4 1 2 4
10 11 11 12 13 11 11 12 12 12 10 9 6 3 3 3 3 4 1 2 2 2 3 4 3 5 6 1 3 3 4 5 9 13 9 15 14 15 16 10 7 5 1 10 18 10 8 3 3 3 4 4 3 3
10 11 12 13 13 12 11 11 11 12 7 3 3 2 5 8 3 2 2 4 3 4 5 5 7 5 3 4 5 3 5 6 14 11 14 12 15 15 16 13 11 9 8 13 14 18 11 8 7 7 8 9 8 6
11 12 14 14 14 14 12 10 9 6 1 4 6 8 2 4 2 4 3 3 4 5 1 3 3 6 5 5 5 4 6 7 6 13 12 17 11 18 13 5 9 5 6 18 14 12 10 9 9 8 9 10 9 9
12 13 14 15 14 11 8 8 9 7 11 2 4 4 2 1 2 2 2 3 3 5 5 9 8 3 3 6 4 3 6 7 5 7 9 8 6 8 6 2 1 6 8 5 8 8 7 8 9 9 10 9 10 8
13 13 13 11 12 5 3 5 4 5 5 3 2 4 4 4 3 3 6 6 4 6 8 6 8 4 3 7 8 5 3 3 9 7 5 6 9 6 6 4 3 5 6 6 8 11 13 14 8 8 10 8 6 6
13 12 11 4 9 7 4 3 4 5 3 2 2 4 3 6 6 6 3 3 7 7 4 4 6 6 6 4 4 4 3 5 6 6 5 5 7 6 8 7 7 7 7 7 6 6 9 10 11 9 7 6 6 6
13 15 2 6 9 8 7 7 6 3 3 3 5 6 5 6 4 5 5 7 7 5 4 2 4 5 4 3 5 4 3 8 7 5 6 7 8 6 5 4 4 6 7 8 8 9 8 10 7 11 11 6 7 7
11 2 1 5 8 8 7 4 3 5 3 4 5 7 7 6 5 6 6 6 8 8 5 2 4 4 6 5 5 6 5 4 2 4 1 5 5 8 8 6 8 8 8 9 9 10 10 11 9 7 9 6 8 9
3 1 3 6 7 3 3 5 3 3 4 5 7 7 9 9 10 8 8 7 7 8 8 4 5 5 5 7 6 8 4 4 9 7 9 6 7 5 6 7 8 8 9 9 9 10 12 8 7 8 3 6 7 8
6 7 7 6 4 4 3 2 2 3 3 6 8 8 10 9 8 10 9 9 8 7 7 6 5 4 3 5 9 10 10 7 8 10 9 2 3 4 5 5 7 8 8 10 11 9 9 9 8 8 8 6 2 6
5 4 4 3 4 3 2 2 3 3 3 3 5 6 9 5 7 6 7 8 7 5 4 6 7 9 8 10 10 9 11 11 9 9 10 9 6 7 8 8 7 9 10 11 11 10 9 8 6 8 6 6 5 8
0 2 3 3 1 2 2 2 1 3 5 4 5 7 5 5 5 6 5 6 4 3 5 4 7 10 13 12 12 10 9 8 8 8 10 11 12 12 12 10 12 11 9 8 8 9 8 8 9 9 9 9 8 7
2 2 0 2 1 2 1 3 4 5 3 5 4 6 3 4 3 3 4 4 4 4 5 7 10 11 10 12 10 10 9 10 10 7 8 7 6 7 9 11 11 9 10 10 11 12 11 11 11 12 11 9 10 10
5 1 1 1 1 2 2 3 2 2 3 4 3 2 2 2 3 5 3 2 2 5 10 9 13 13 6 5 6 11 10 8 5 6 7 8 6 7 7 9 9 11 10 11 11 11 11 15 14 12 11 11 9 9
1 2 2 2 3 1 1 1 1 1 3 1 2 1 2 2 3 2 3 0 2 3 9 15 11 11 9 9 7 5 5 4 4 4 4 4 5 6 4 4 6 5 6 6 6 9 10 10 12 12 13 13 13 11
0 2 3 2 3 5 5 5 4 5 4 4 4 3 2 4 2 2 2 3 1 4 4 6 7 8 7 5 3 5 6 4 5 5 3 1 2 2 3 2 4 5 7 9 9 10 8 10 10 10 10 10 10 11
3 7 7 6 5 5 5 5 6 6 3 1 4 4 4 1 4 4 4 8 7 3 6 7 5 4 5 5 5 4 5 2 4 7 8 7 7 6 7 4 4 4 3 2 4 7 8 8 8 12 11 12 11 11
4 5 7 6 4 3 3 4 4 3 4 4 3 5 3 3 5 3 3 3 4 3 4 5 4 6 5 4 4 4 4 4 7 7 8 7 8 9 10 11 12 10 9 5 5 5 8 6 6 7 7 7 9 11
5 4 6 8 6 5 3 2 2 2 3 4 1 4 3 3 3 1 1 3 5 6 6 7 6 8 3 4 8 9 9 10 9 10 9 9 10 8 10 10 10 17 12 9 9 8 8 9 7 8 8 10 8 4
5 4 4 7 4 4 2 4 4 1 5 4 7 4 5 4 2 3 4 8 9 8 8 9 9 8 8 9 8 9 10 11 14 18 18 13 12 12 13 13 12 11 11 12 15 12 14 13 13 12 12 9 6 6
5 6 4 3 2 3 3 3 5 7 7 9 9 9 7 6 4 4 4 3 5 6 9 11 10 10 10 10 11 12 10 11 11 11 12 13 13 14 13 15 14 14 14 15 15 16 15 11 9 13 14 12 7 4
7 5 3 5 4 5 5 10 8 9 9 8 9 6 3 2 2 4 5 7 7 8 9 11 11 12 11 12 12 12 11 11 13 14 12 11 12 12 12 14 13 13 14 16 16 15 16 15 13 15 17 18 21 20
4 4 3 2 3 2 8 5 6 7 5 4 2 1 2 2 2 2 6 8 9 9 10 11 11 12 12 11 10 10 11 11 10 10 12 10 12 13 13 12 12 12 14 16 15 15 16 17 14 14 14 16 17 17
4 3 3 6 4 3 6 7 7 4 4 2 2 3 4 2 2 1 3 9 9 8 10 10 11 11 13 13 12 11 12 11 8 3 4 4 10 12 12 10 11 12 16 15 14 16 16 19 15 17 15 13 15 15
Wind_Direction
317 320 320 324 324 323 323 322 318 314 313 311 314 316 316 316 320 278 290 290 274 273 284 289 296 296 293 280 274 298 321 264 242 256 243 250 250 246 248 256 247 235 234 241 240 258 235 31 353 297 111 121 109 95
308 315 317 317 320 322 322 318 317 315 310 304 301 299 299 299 299 308 275 294 334 253 290 309 292 287 278 274 283 299 294 302 340 327 356 312 285 258 249 247 245 247 233 235 244 251 113 140 180 141 161 132 117 105
306 308 310 312 314 317 322 318 321 321 312 302 297 295 292 288 283 263 282 299 303 274 275 251 256 259 235 233 241 263 269 279 282 302 310 295 285 297 285 289 287 319 238 234 229 239 134 154 161 153 85 128 151 111
301 304 307 309 310 310 316 317 318 312 312 309 306 306 303 296 283 271 261 278 247 279 278 287 314 291 306 294 275 225 248 267 284 291 294 277 295 314 342 298 308 299 324 229 231 174 118 128 131 134 135 127 104 111
298 302 304 302 302 302 308 315 314 310 309 313 316 319 310 297 280 264 266 256 236 215 279 292 314 278 255 262 253 270 262 250 254 259 256 264 278 290 282 321 270 302 324 304 217 150 140 132 121 139 121 106 84 73
297 303 304 298 300 298 305 308 314 310 307 311 316 319 312 309 289 273 290 40 285 186 254 284 327 294 289 282 240 244 261 255 240 248 257 269 279 280 274 279 282 340 325 327 267 113 83 120 144 134 118 100 62 86
302 305 301 303 300 303 304 303 309 304 307 310 308 306 318 292 268 250 323 25 47 99 310 293 266 134 279 262 246 245 245 225 255 243 244 260 269 272 276 265 307 337 333 309 331 124 139 149 125 108 97 76 75 74
304 306 302 304 303 306 303 302 311 306 306 304 297 301 312 287 279 277 243 211 300 253 212 266 276 314 21 308 289 259 251 243 221 258 261 240 251 259 263 263 130 122 328 323 296 305 141 94 114 94 63 52 49 25
306 303 305 303 304 304 305 304 310 305 303 308 295 282 256 239 232 239 231 212 213 242 253 232 261 285 13 301 283 283 215 229 231 223 239 245 234 224 232 301 53 114 221 260 258 243 68 78 55 50 42 15 62 20
304 303 303 301 302 303 303 305 306 311 308 300 265 212 227 198 61 247 236 217 206 195 220 250 246 255 329 28 296 293 221 230 218 229 226 225 241 261 242 228 134 55 216 296 311 345 348 339 42 356 324 352 1 12
302 302 300 300 297 297 294 302 307 317 263 225 256 272 56 136 188 214 271 243 154 243 208 231 217 230 227 221 233 260 235 227 227 202 211 214 228 237 253 218 159 146 280 256 257 273 274 290 294 292 291 293 297 288
307 305 304 301 299 294 290 296 300 268 45 308 298 281 198 222 196 257 243 265 259 293 304 251 181 202 207 191 194 260 271 263 240 172 193 228 211 198 228 290 204 141 185 260 273 296 312 322 309 300 294 292 291 292
307 309 310 313 313 307 283 285 295 287 282 294 252 249 200 180 267 212 283 258 267 298 293 328 304 209 220 191 185 175 259 265 338 192 190 210 116 119 138 128 274 261 251 342 336 313 305 309 316 312 299 298 286 294
308 309 318 324 342 356 292 295 292 267 265 240 293 303 244 239 254 264 247 284 184 236 277 284 279 268 246 207 219 243 61 279 230 173 101 105 93 106 96 90 83 18 22 6 344 343 341 349 328 291 280 285 283 277
303 311 317 348 332 340 312 293 281 251 255 254 283 254 269 326 341 8 31 257 266 233 252 287 255 248 263 279 28 301 218 274 2 55 82 84 76 60 40 54 63 48 12 360 22 5 341 324 320 313 290 272 253 259
310 298 242 331 325 307 315 283 237 237 252 254 239 259 251 237 300 296 301 303 304 315 145 249 294 282 281 267 226 45 358 24 350 24 1 23 26 35 49 36 50 29 349 357 359 356 344 320 335 320 317 287 265 232
306 224 191 328 326 292 270 274 238 232 219 234 240 263 313 332 315 316 317 316 346 333 324 219 274 292 311 297 347 18 49 107 258 285 213 100 318 314 323 340 13 355 345 334 338 338 333 313 335 316 305 309 297 282
236 142 280 304 314 271 233 221 265 259 251 272 338 0 336 336 330 322 344 322 319 326 331 318 303 285 333 3 352 346 68 294 217 226 189 176 202 245 292 337 336 326 318 312 319 322 296 299 308 314 286 286 286 244
296 292 276 262 288 291 277 227 272 286 268 328 335 350 340 327 331 335 345 359 349 340 309 287 237 64 315 351 342 327 338 9 358 343 323 356 180 238 252 289 286 281 319 327 306 291 295 297 287 297 291 314 292 305
318 30 145 173 244 267 287 334 288 273 322 330 322 322 313 293 306 8 13 356 338 335 335 2 4 333 330 318 316 318 315 340 335 331 330 340 340 5 347 342 329 319 291 278 280 271 277 292 319 292 317 341 303 296
192 103 121 263 207 257 294 320 341 334 320 317 350 325 326 22 16 5 3 339 22 30 335 350 321 315 318 316 304 305 313 329 325 321 321 323 342 341 326 330 325 308 296 295 311 318 309 309 323 320 307 308 301 309
104 197 291 128 297 277 20 12 320 318 287 308 342 345 8 347 349 351 312 8 27 338 325 302 302 298 297 295 301 307 322 326 346 357 1 342 334 336 340 336 331 330 329 331 339 333 327 325 322 330 320 317 321 316
149 185 100 36 88 50 260 303 286 257 299 0 334 339 340 354 352 338 69 29 332 304 313 328 331 354 316 294 58 52 46 52 25 12 18 21 25 21 17 14 15 9 353 340 331 317 312 316 303 297 307 301 296 289
243 181 203 172 179 166 242 202 203 280 280 282 306 291 145 176 167 72 73 103 268 284 328 347 356 357 7 23 27 5 2 9 357 343 358 7 8 356 351 340 330 0 355 319 340 353 331 296 299 303 309 305 292 298
113 197 184 193 203 204 197 162 157 207 163 180 209 205 207 184 195 88 57 194 97 322 311 312 332 344 350 341 340 332 323 328 311 315 333 309 287 313 332 346 345 340 359 351 341 337 343 2 359 353 345 345 360 343
241 190 201 200 157 224 177 177 193 194 164 156 272 125 190 215 61 60 13 9 11 8 336 332 325 301 311 333 341 344 347 353 346 1 343 340 352 351 358 341 334 310 285 280 293 316 321 314 343 351 341 350 354 352
256 178 185 231 251 189 224 214 228 195 206 221 180 195 185 72 50 40 54 11 345 284 280 292 293 310 327 319 284 245 280 347 28 10 348 3 3 8 359 351 342 345 326 279 275 275 286 295 302 298 304 326 332 336
253 258 186 177 204 203 273 219 207 44 345 332 60 63 62 55 77 27 255 256 267 279 280 285 271 263 300 330 7 1 4 357 12 3 6 3 358 7 1 344 340 315 312 327 328 318 272 277 279 267 267 275 280 296
236 185 167 257 208 194 205 37 61 33 28 24 58 79 83 70 72 338 15 12 18 2 334 335 356 6 15 1 12 12 6 357 359 2 4 356 353 358 357 344 337 347 342 332 323 313 309 304 279 275 277 264 266 254
202 180 205 211 33 8 87 106 82 73 62 68 90 114 96 68 33 2 360 335 308 307 352 353 350 7 10 3 355 9 12 359 8 13 4 350 350 347 347 338 338 346 344 338 329 325 318 332 350 5 5 344 338 298
198 120 237 223 146 176 137 92 74 69 81 67 77 76 68 111 319 274 272 285 332 19 18 350 357 6 7 2 357 359 360 345 4 24 18 347 351 347 345 330 344 342 346 336 337 345 355 348 5 8 1 358 358 2
131 228 231 158 95 210 114 112 78 73 60 38 52 78 234 210 252 35 10 16 7 9 19 358 354 359 5 353 1 3 358 337 6 21 12 6 360 350 339 334 349 343 353 336 345 352 350 359 6 14 6 5 4 9
274 327 312 86 105 248 201 96 50 41 9 11 252 237 257 62 122 272 333 21 8 7 15 0 351 358 351 360 5 3 356 348 61 138 206 30 358 338 328 340 345 353 353 344 357 340 357 354 0 4 11 15 11 14